Location: Austin
(30.3000°N, 97.7500°W)
Time: 04:08:28
(UTC-05:00)

COSMOS 2406 - Visible Passes

Search period start: 08 September 2024 00:00
Search period end: 18 September 2024 00:00
Orbit: 846 x 858 km, 71.0° (Epoch: 07 September)

Date Brightness Start Highest point End Pass type
(mag) Time Alt. Az. Time Alt. Az. Time Alt. Az.
08 Sep 5.2 04:06:35 22° N 04:06:35 22° N 04:08:28 10° NNE visible
09 Sep 5.5 03:55:23 17° N 03:55:23 17° N 03:56:41 10° NNE visible
10 Sep 5.7 03:44:07 14° NNE 03:44:07 14° NNE 03:44:54 10° NNE visible
11 Sep 6.0 03:32:50 11° NNE 03:32:50 11° NNE 03:33:06 10° NNE visible
